sat.trackr.live / text

‹ back to catalog

STARLINK-30161

NORAD 57476 · 2023-107V

PAYLOAD ACTIVE UNKNOWN

§ Identity

Operator
Country
US
Launch date
2023-07-28
Launch site
AFETR
Launch vehicle
Mass (kg)
RCS (m²)

Purposes: comms

External: N2YO · Heavens-Above · Gunter

§ Orbital elements

Epoch: 2026-05-25T00:22:55.147584Z

Period
94.27 min
Inclination
43.0016°
Eccentricity
0.0001405
Mean motion
15.27574720 rev/d
Perigee alt
482.1 km
Apogee alt
484.0 km
Semi-major
6,861.2 km
B*
2.3575e-5
RAAN
264.7562°
Arg perigee
266.1927°
Mean anomaly
93.8764°
Rev number
15,682

§ Raw data

STARLINK-301611 57476U 23107V   26145.01591606  .00000387  00000+0  23575-4 0  99912 57476  43.0016 264.7562 0001405 266.1927  93.8764 15.27574720156829

JSON: /api/v1/satellites/57476 · /tle

For live sub-satellite position, see the globe view (requires WebGL).

§ Visibility from observer

Set your observer location to see the next 7 days of passes ≥ 10°. The values pass through the URL so the page stays shareable.

No JS? Fill the form by hand. The geolocation button needs JavaScript.